Location: Perryvale
(54.4667°N, 113.3833°W)
Time: 23:17:24
(UTC+00:00)

Vanguard 1 - Pass Details

Date: 28 May 2024
Orbit: 652 x 3825 km, 34.2° (Epoch: 13 June)

Event Time Altitude Azimuth Distance (km) Brightness Sun altitude
Rises 07:39:23 0° 261° (W) 5,391 13.7 -14.0°
Reaches altitude 10° 07:43:35 10° 247° (WSW) 4,861 13.3 -13.9°
Maximum altitude 07:53:43 23° 204° (SSW) 4,831 13.0 -13.8°
Drops below altitude 10° 08:07:23 10° 163° (SSE) 6,668 13.7 -13.6°
Sets 08:14:53 0° 151° (SSE) 7,914 14.2 -13.4°
